This is the latest recevied weather packets stored in our database for station/object KF7SOJ. If no packets are shown the sender has not sent any weather packets the latest 10 day(s).
| Time | Temp. | Humidity | Pressure | Rain* | Wind** | Luminosity | Snow |
|---|---|---|---|---|---|---|---|
| 1788132131 | 24.44° C | 26% | 928.9 hPa | 0 mm | - | 364 W/m² | - |
| 1788131828 | 24.44° C | 23% | 928.7 hPa | 0 mm | - | 380 W/m² | - |
| 1788131522 | 24.44° C | 24% | 928.8 hPa | 0 mm | - | 399 W/m² | - |
| 1788131222 | 24.44° C | 21% | 928.9 hPa | 0 mm | - | 417 W/m² | - |
| 1788130918 | 24.44° C | 21% | 928.7 hPa | 0 mm | - | 436 W/m² | - |
| 1788130612 | 24.44° C | 22% | 928.9 hPa | 0 mm | - | 452 W/m² | - |
| 1788130312 | 24.44° C | 21% | 928.9 hPa | 0 mm | - | 469 W/m² | - |
| 1788130011 | 24.44° C | 20% | 928.8 hPa | 0 mm | - | 485 W/m² | - |
| 1788129707 | 24.44° C | 20% | 929 hPa | 0 mm | - | 500 W/m² | - |
| 1788129404 | 24.44° C | 22% | 929.1 hPa | 0 mm | - | 515 W/m² | - |
| 1788129103 | 23.89° C | 21% | 928.9 hPa | 0 mm | - | 529 W/m² | - |
| 1788128798 | 23.89° C | 35% | 929.1 hPa | 0 mm | - | 543 W/m² | - |
| 1788128494 | 23.33° C | 36% | 928.9 hPa | 0 mm | - | 556 W/m² | - |
| 1788128189 | 23.33° C | 38% | 929.3 hPa | 0 mm | - | 572 W/m² | - |
| 1788127885 | 23.33° C | 37% | 929.2 hPa | 0 mm | - | 585 W/m² | - |
| 1788127582 | 22.78° C | 38% | 929.3 hPa | 0 mm | - | 598 W/m² | - |
| 1788127280 | 22.78° C | 38% | 929.3 hPa | 0 mm | - | 610 W/m² | - |
| 1788126979 | 22.22° C | 40% | 929.4 hPa | 0 mm | - | 622 W/m² | - |
| 1788126673 | 22.78° C | 43% | 929.5 hPa | 0 mm | - | 636 W/m² | - |
| 1788126369 | 22.78° C | 41% | 929.4 hPa | 0 mm | - | 649 W/m² | - |
| 1788126063 | 22.78° C | 45% | 929.7 hPa | 0 mm | - | 663 W/m² | - |
| 1788125763 | 22.22° C | 42% | 929.7 hPa | 0 mm | - | 670 W/m² | - |
| 1788125458 | 22.22° C | 43% | 929.8 hPa | 0 mm | - | 683 W/m² | - |
| 1788125154 | 21.67° C | 45% | 929.8 hPa | 0 mm | - | 692 W/m² | - |
| 1788124849 | 21.67° C | 44% | 930 hPa | 0 mm | - | 705 W/m² | - |
* Rain latest hour (hover to see other rain measurements)
** Current wind speed in m/s (hover to see current wind gust speed)